OBJECT B, 69473

Orbit data source: Space-Track

You're viewing an Uncataloged Satellite

Recently launched and/or uncataloged satellites may have evolving metadata. Metadata may include but not limited to: Owner, Maufacturer, Bus, Motor, and Mission.

OBJECT B, 69473 is a Chinese satellite in LEO that was launched on Tue, 09 Jun 2026 UTC via a ZHUQUE-2E launch vehicle from the Jiuquan Satellite Launch Center, China (JSC). Unknown objects in Earth's orbit typically refer to objects detected orbiting the Earth but have not yet been identified or cataloged. These objects could be anything from previously untracked satellites, spent rocket stages, debris from satellite collisions, or even natural meteoroids temporarily captured by Earth's gravity.

Loading next visibility...
Identifier
69473, 2026-128B
Orbit
LEO
Country
Flag of CNCN / PRC
Related business
Manufacturer
Yinhe
Mission
Operational spacecraft
Bus & Motor
YIDONG, Unknown motor
Mass
300 kg wet, ~270 kg dry
Launch date (UTC)
2026-06-09 (1 month ago)
Launch vehicle
ZHUQUE-2E
Launch site
Jiuquan Satellite Launch Center, China (JSC)
Object type
Unknown
Shape & HBR
Unknown shape, 1.1 m
Radar Cross Section
Large (>1 m²)

Expand to show TLE details & history
Last TLE update: 3 weeks ago

TLE from 3 weeks ago
0 OBJECT B
1 69473U 26128B   26178.37654890  .00024134  00000-0  33565-3 0  9993
2 69473  55.0021 257.9040 0009934 325.3113  34.7274 15.56860342  2801
Epoch: 2026-06-27T09:02Z
TLE epoch observation values (Epoch: 2026-06-27T09:02:13.824Z)
Latitude
-0.00008°
Longitude
-153.14524°
Altitude
392.329 km
Speed
7.679 km/s
True Right ascension
17h 11m 36s
True Declination
0° 00' 00"
Sunlit
Object was in full shadow at epoch
Visualization orbit readout
Latitude
Unknown
Longitude
Unknown
Altitude
Unknown
Speed
Unknown
Apparent Right ascension
Unknown
Apparent Declination
Unknown
Sunlit
N/A
Visualization observer readout
Local Sidereal Time
06:03:20
Azimuth
Unknown
Elevation
Unknown
Doppler factor
Unknown
Orbital elements
Apogee altitude
403.442 km
Perigee altitude
389.982 km
Semi-major axis
6,774.849 km
Eccentricity
0.00099
Inclination
55.0021°
RAAN
257.904°
Arg. of periapsis
325.3113°
True anomaly
34.79232°
Mean anomaly
34.7274°
Eccentric anomaly
34.75985°
Mean motion
3.89219 °/min
Orbital period
92.49 mins
BSTAR
0.00033565
Loading maneuver chart data...
Computing Atmospheric mass density...
Loading historical data...
Loading historical data...
Loading historical data...
Loading historical data...
Loading historical data...
Loading historical data...
Loading historical data...

Documentation

Showing up to 5 results
|